Alma, MI

7:01 PM EDT on June 25, 2017 (GMT -0400)
Gratiot Community

Weather History for KAMN - May, 2013

Change the Weather History Date:

Tuesday, May 14, 2013

  Actual Average Record
Temperature  
Mean Temperature 58 °F -  
Max Temperature 74 °F 68 °F 88 °F (1977)
Min Temperature 43 °F 43 °F 32 °F (1984)
Degree Days  
Heating Degree Days 6    
Growing Degree Days 8 (Base 50)    
Moisture  
Dew Point 40 °F    
Average Humidity 54    
Maximum Humidity 92    
Minimum Humidity 38    
Precipitation  
Precipitation 0.00 in - - ()
Sea Level Pressure  
Sea Level Pressure 29.86 in    
Wind  
Wind Speed 6 mph (SSE)    
Max Wind Speed 13 mph    
Max Gust Speed 22 mph    
Visibility 10 miles    
Events Rain    
Averages and records for this station are not official NWS values.
T = Trace of Precipitation, MM = Missing Value Source: NWS Daily Summary

Daily Weather History Graph

Daily Weather History Graph

Search for Another Location

Airport or City:

Trip Planner

Search our weather history database for the weather conditions in past years. The results will help you decide how hot, cold, wet, or windy it might be!

Date:

Astronomy

May. 14, 2013 Rise Set
Actual Time 6:15 AM EDT 8:55 PM EDT
Civil Twilight 5:42 AM EDT 9:28 PM EDT
Nautical Twilight 5:01 AM EDT 10:09 PM EDT
Astronomical Twilight 4:14 AM EDT 10:57 PM EDT
Moon 9:54 AM EDT (5/14) 12:03 AM EDT (5/14)
Length of Visible Light 15h 45m
Length of Day
14h 39m
Waxing Crescent, 19% of the Moon is Illuminated
May 14
Waxing Crescent
May 18
First Quarter
May 25
Full
May 31
Last Quarter
Jun 8
New

Hourly Weather History & Observations

Time (EDT) Temp. Windchill Dew Point Humidity Pressure Visibility Wind Dir Wind Speed Gust Speed Precip Events Conditions
12:14 AM 44.1 °F 42.5 °F 30.6 °F 59% 30.06 in 10.0 mi South 3.5 mph - N/A   Clear
12:35 AM 44.6 °F 43.1 °F 29.1 °F 55% 30.06 in 10.0 mi South 3.5 mph - N/A   Mostly Cloudy
12:54 AM 44.2 °F 41.8 °F 30.2 °F 58% 30.06 in 10.0 mi South 4.6 mph - N/A   Overcast
1:14 AM 44.6 °F - 31.5 °F 60% 30.06 in 10.0 mi Calm Calm - N/A   Mostly Cloudy
1:34 AM 44.4 °F 42.0 °F 30.7 °F 59% 30.06 in 10.0 mi South 4.6 mph - N/A   Mostly Cloudy
1:54 AM 44.1 °F 41.5 °F 30.7 °F 59% 30.06 in 10.0 mi SSW 4.6 mph - N/A   Overcast
2:14 AM 44.6 °F 43.1 °F 30.4 °F 57% 30.06 in 10.0 mi SW 3.5 mph - N/A   Overcast
2:33 AM 44.6 °F 42.2 °F 30.6 °F 58% 30.04 in 10.0 mi South 4.6 mph - N/A   Overcast
2:54 AM 44.6 °F - 30.7 °F 58% 30.05 in 10.0 mi Calm Calm - N/A   Overcast
3:14 AM 44.8 °F - 31.8 °F 60% 30.05 in 10.0 mi North - - N/A   Overcast
3:34 AM 43.9 °F - 33.1 °F 66% 30.04 in 10.0 mi North - - N/A   Overcast
3:53 AM 43.7 °F 42.1 °F 36.0 °F 74% 30.04 in 10.0 mi South 3.5 mph - N/A Rain Rain
4:14 AM 43.0 °F - 37.0 °F 80% 30.02 in 10.0 mi North - - N/A   Overcast
4:34 AM 44.2 °F 42.7 °F 33.4 °F 66% 30.01 in 10.0 mi South 3.5 mph - N/A   Overcast
4:54 AM 44.4 °F - 33.3 °F 65% 30.01 in 10.0 mi North - - N/A   Light Drizzle
5:14 AM 44.8 °F - 33.4 °F 64% 29.98 in 10.0 mi North - - N/A   Overcast
5:33 AM 45.1 °F 40.8 °F 32.0 °F 60% 29.97 in 10.0 mi SE 8.1 mph - N/A   Overcast
5:54 AM 45.7 °F 41.5 °F 31.5 °F 58% 29.95 in 10.0 mi SSE 8.1 mph - N/A   Overcast
6:14 AM 46.4 °F 42.4 °F 29.8 °F 53% 29.95 in 10.0 mi SSE 8.1 mph - N/A   Overcast
6:34 AM 46.6 °F - 29.8 °F 52% 29.94 in 10.0 mi SSE 6.9 mph - N/A   Overcast
6:54 AM 47.1 °F - 28.8 °F 49% 29.94 in 10.0 mi South 6.9 mph - N/A   Scattered Clouds
7:14 AM 47.5 °F - 28.4 °F 48% 29.94 in 10.0 mi SSE 5.8 mph - N/A   Scattered Clouds
7:34 AM 48.6 °F - 28.6 °F 46% 29.94 in 10.0 mi SE 5.8 mph - N/A   Mostly Cloudy
7:54 AM 49.1 °F - 30.7 °F 49% 29.93 in 10.0 mi ESE 8.1 mph - N/A   Overcast
8:14 AM 49.3 °F - 30.4 °F 48% 29.92 in 10.0 mi SE 8.1 mph - N/A   Scattered Clouds
8:34 AM 49.6 °F - 31.6 °F 50% 29.91 in 10.0 mi ESE 9.2 mph - N/A   Mostly Cloudy
8:54 AM 50.0 °F - 31.3 °F 49% 29.90 in 10.0 mi ESE 9.2 mph 18.4 mph N/A   Overcast
9:14 AM 50.9 °F - 31.6 °F 48% 29.90 in 10.0 mi SE 5.8 mph 16.1 mph N/A   Overcast
9:34 AM 51.3 °F - 32.2 °F 48% 29.89 in 10.0 mi SE 6.9 mph 18.4 mph N/A   Overcast
9:55 AM 52.9 °F - 33.3 °F 47% 29.87 in 10.0 mi SE 12.7 mph 19.6 mph N/A   Overcast
10:14 AM 54.5 °F - 34.9 °F 48% 29.85 in 10.0 mi SE 8.1 mph - N/A   Overcast
10:35 AM 55.4 °F - 34.0 °F 44% 29.85 in 10.0 mi SE 6.9 mph - N/A   Overcast
10:54 AM 56.5 °F - 34.9 °F 44% 29.84 in 10.0 mi SE 10.4 mph 18.4 mph N/A   Overcast
11:14 AM 57.6 °F - 36.3 °F 45% 29.84 in 10.0 mi North - - N/A   Overcast
11:34 AM 59.0 °F - 36.9 °F 44% 29.82 in 10.0 mi SE 6.9 mph - N/A   Overcast
11:54 AM 61.3 °F - 38.8 °F 43% 29.82 in 10.0 mi SE 10.4 mph 16.1 mph N/A   Overcast
12:15 PM 64.2 °F - 38.8 °F 39% 29.82 in 10.0 mi South 8.1 mph - N/A   Overcast
12:34 PM 64.2 °F - 40.1 °F 41% 29.84 in 10.0 mi South 8.1 mph - N/A   Overcast
12:54 PM 65.1 °F - 40.8 °F 41% 29.83 in 10.0 mi South 10.4 mph - N/A   Overcast
1:14 PM 66.7 °F - 41.5 °F 40% 29.82 in 10.0 mi South 5.8 mph - N/A   Overcast
1:34 PM 68.4 °F - 43.2 °F 40% 29.81 in 10.0 mi SSW 6.9 mph - N/A   Scattered Clouds
1:54 PM 69.1 °F - 44.6 °F 41% 29.80 in 10.0 mi South 5.8 mph - N/A   Clear
2:14 PM 69.3 °F - 43.9 °F 40% 29.80 in 10.0 mi SSW 8.1 mph - N/A   Clear
2:35 PM 70.5 °F - 45.1 °F 40% 29.79 in 10.0 mi South 8.1 mph - N/A   Clear
2:54 PM 71.1 °F - 44.8 °F 39% 29.78 in 10.0 mi North - - N/A   Clear
3:15 PM 72.5 °F - 45.7 °F 38% 29.78 in 10.0 mi West 4.6 mph - N/A   Clear
3:34 PM 72.3 °F - 47.7 °F 41% 29.78 in 10.0 mi North - - N/A   Clear
3:54 PM 72.0 °F - 47.1 °F 41% 29.77 in 10.0 mi North - - N/A   Clear
4:15 PM 72.0 °F - 47.7 °F 42% 29.78 in 10.0 mi North - - N/A   Clear
4:34 PM 72.3 °F - 48.0 °F 42% 29.78 in 10.0 mi North - - N/A   Clear
4:54 PM 72.5 °F - 47.7 °F 41% 29.78 in 10.0 mi North - - N/A   Clear
5:14 PM 71.6 °F - 50.2 °F 47% 29.76 in 10.0 mi North - - N/A   Clear
5:34 PM 72.5 °F - 50.0 °F 45% 29.75 in 10.0 mi SSW 6.9 mph - N/A   Clear
5:55 PM 73.2 °F - 50.0 °F 44% 29.76 in 10.0 mi North - - N/A   Clear
6:14 PM 74.3 °F - 50.2 °F 43% 29.76 in 10.0 mi West 9.2 mph - N/A   Clear
6:34 PM 73.8 °F - 50.0 °F 43% 29.75 in 10.0 mi WSW 5.8 mph - N/A   Clear
6:54 PM 72.0 °F - 51.1 °F 48% 29.75 in 10.0 mi North - - N/A   Clear
7:15 PM 71.6 °F - 49.8 °F 46% 29.74 in 10.0 mi NW 6.9 mph - N/A   Clear
7:34 PM 71.2 °F - 50.9 °F 49% 29.74 in 10.0 mi Calm Calm - N/A   Clear
7:55 PM 64.8 °F - 46.8 °F 52% 29.74 in 10.0 mi ENE 10.4 mph - N/A   Clear
8:14 PM 63.5 °F - 46.6 °F 54% 29.74 in 10.0 mi ENE 10.4 mph - N/A   Scattered Clouds
8:35 PM 61.9 °F - 46.6 °F 57% 29.71 in 10.0 mi ENE 12.7 mph - N/A   Scattered Clouds
8:54 PM 60.8 °F - 46.0 °F 58% 29.69 in 10.0 mi East 9.2 mph 21.9 mph N/A   Scattered Clouds
9:15 PM 60.8 °F - 46.0 °F 58% 29.69 in 10.0 mi East 10.4 mph 20.7 mph N/A   Clear
9:34 PM 61.0 °F - 46.4 °F 59% 29.71 in 10.0 mi North - - N/A   Clear
9:55 PM 59.9 °F - 46.8 °F 62% 29.74 in 10.0 mi NNW 4.6 mph 17.3 mph N/A Rain Light Rain
10:14 PM 57.9 °F - 51.3 °F 78% 29.74 in 10.0 mi NW 4.6 mph - N/A Rain Light Rain
10:35 PM 56.7 °F - 51.8 °F 84% 29.74 in 10.0 mi Calm Calm - N/A   Clear
10:54 PM 56.1 °F - 52.9 °F 89% 29.73 in 10.0 mi North - - N/A Rain Light Rain
11:14 PM 55.4 °F - 53.1 °F 92% 29.71 in 10.0 mi Calm Calm - N/A   Clear
11:35 PM 55.4 °F - 53.2 °F 92% 29.71 in 10.0 mi North - - N/A   Scattered Clouds
11:54 PM 54.9 °F - 52.0 °F 90% 29.70 in 10.0 mi Calm Calm - N/A   Scattered Clouds